Location: *
(48.8780°N, 19.2358°E)
Time: 02:13:48
(UTC+00:00)

STARLINK-37 - Pass Details

Date: 18 October 2019
Orbit: 550 x 553 km, 53.0° (Epoch: 13 November)

Event Time Altitude Azimuth Distance (km) Brightness Sun altitude
Rises 17:42:10 0° 274° (W) 2,724 8.8 -19.4°
Reaches altitude 10° 17:44:28 10° 280° (W) 1,830 7.5 -19.8°
Maximum altitude 17:48:30 47° 355° (N) 735 4.3 -20.4°
Enters shadow 17:49:25 39° 35° (NE) 830 4.3 -20.6°
